GW2953 Weather Reports


time (UTC)temp
C
wind
direction
speed
KPH
gust
KPH
rain 1hr
cm
rain 24hr
cm
rain mn
cm
humidity
%
barometer
mb
20260506015339 15 226 12.9 14.5 0.00 0.00 0.00 83 1013.8
20260506014835 15 212 8.0 17.7 0.00 0.00 0.00 82 1013.7
20260506014332 15 221 4.8 14.5 0.00 0.00 0.00 83 1013.7
20260506013829 15 259 11.3 14.5 0.00 0.00 0.00 82 1013.7
20260506013326 15 313 3.2 16.1 0.00 0.00 0.00 82 1013.7
20260506012822 15 268 11.3 17.7 0.00 0.00 0.00 82 1013.5
20260506012320 15 281 11.3 19.3 0.00 0.00 0.00 82 1013.4
20260506011817 15 185 4.8 16.1 0.00 0.00 0.00 83 1013.4
20260506011313 15 272 12.9 20.9 0.00 0.00 0.00 82 1013.5
20260506010811 15 229 8.0 14.5 0.00 0.00 0.00 81 1013.3
20260506010309 15 265 12.9 20.9 0.00 0.00 0.00 82 1013.3
20260506005806 15 190 17.7 22.5 0.00 0.00 0.00 82 1013.1
20260506005305 15 258 9.7 14.5 0.00 0.00 0.00 82 1013.2
20260506004758 16 188 12.9 17.7 0.00 0.00 0.00 81 1013.2
20260506004256 16 285 8.0 19.3 0.00 0.00 0.00 81 1013.1
20260506003752 16 201 8.0 17.7 0.00 0.00 0.00 81 1013.0
20260506003249 16 192 8.0 16.1 0.00 0.00 0.00 80 1013.1
20260506002745 16 219 9.7 17.7 0.00 0.00 0.00 80 1013.0
20260506002241 16 191 8.0 20.9 0.00 0.00 0.00 80 1013.0
20260506001737 16 138 6.4 17.7 0.00 0.00 0.00 79 1013.1
20260506001235 17 193 9.7 22.5 0.00 0.00 0.00 77 1012.9
20260506000731 16 202 16.1 17.7 0.00 0.00 0.00 79 1013.0
20260506000229 16 137 4.8 19.3 0.00 0.00 0.00 79 1012.9
20260505235726 16 193 8.0 20.9 0.00 0.00 0.00 78 1012.8
20260505235224 16 265 16.1 27.4 0.00 0.00 0.00 78 1012.6
20260505234720 17 169 12.9 20.9 0.00 0.00 0.00 78 1012.9
20260505234218 17 190 3.2 24.1 0.00 0.00 0.00 78 1013.0
20260505233714 17 216 6.4 17.7 0.00 0.00 0.00 78 1012.9
20260505233212 17 181 9.7 19.3 0.00 0.00 0.00 77 1012.9
20260505232709 17 263 4.8 14.5 0.00 0.00 0.00 78 1012.9
20260505232206 17 177 14.5 17.7 0.00 0.00 0.00 77 1012.9
20260505231703 17 165 8.0 14.5 0.00 0.00 0.00 78 1012.9
20260505231202 17 186 8.0 25.7 0.00 0.00 0.00 79 1012.8
20260505230700 17 175 6.4 25.7 0.00 0.00 0.00 78 1013.1
20260505230157 17 184 9.7 17.7 0.00 0.00 0.00 78 1013.0
20260505225653 17 176 4.8 20.9 0.00 0.00 0.00 78 1012.9
20260505225149 17 208 9.7 22.5 0.00 0.00 0.00 78 1013.0
20260505224645 17 126 4.8 19.3 0.00 0.00 0.00 78 1012.9
20260505224144 17 194 20.9 20.9 0.00 0.00 0.00 77 1013.0
20260505223641 17 205 8.0 22.5 0.00 0.00 0.00 78 1013.1
20260505223136 17 182 14.5 24.1 0.00 0.00 0.00 78 1013.1
20260505222633 17 185 8.0 19.3 0.00 0.00 0.00 77 1013.1
20260505222129 17 186 16.1 17.7 0.00 0.00 0.00 77 1013.1
20260505221626 17 181 8.0 19.3 0.00 0.00 0.00 77 1013.1
20260505221123 17 172 9.7 22.5 0.00 0.00 0.00 78 1012.9
20260505220620 17 195 14.5 20.9 0.00 0.00 0.00 77 1013.0
20260505220118 17 184 8.0 20.9 0.00 0.00 0.00 77 1013.2
20260505215615 17 183 12.9 20.9 0.00 0.00 0.00 77 1013.2
20260505215113 17 201 6.4 20.9 0.00 0.00 0.00 77 1013.3
20260505214611 17 216 9.7 20.9 0.00 0.00 0.00 77 1013.2
20260505214108 17 185 11.3 17.7 0.00 0.00 0.00 79 1013.3
20260505213606 16 212 9.7 17.7 0.00 0.00 0.00 78 1013.2
20260505213102 17 218 4.8 19.3 0.00 0.00 0.00 77 1013.4
20260505212558 17 223 14.5 19.3 0.00 0.00 0.00 76 1013.3
20260505212056 17 194 12.9 19.3 0.00 0.00 0.00 78 1013.4
20260505211552 17 199 6.4 17.7 0.00 0.00 0.00 76 1013.2
20260505211049 17 181 11.3 17.7 0.00 0.00 0.00 76 1013.3
20260505210546 17 189 8.0 17.7 0.00 0.00 0.00 75 1013.2
20260505210043 17 201 6.4 17.7 0.00 0.00 0.00 76 1013.2
20260505205541 17 173 9.7 19.3 0.00 0.00 0.00 76 1013.3
20260505205038 17 181 17.7 20.9 0.00 0.00 0.00 76 1013.4
20260505204536 17 166 14.5 17.7 0.00 0.00 0.00 77 1013.3
20260505204033 17 170 11.3 14.5 0.00 0.00 0.00 76 1013.2
20260505203529 17 216 8.0 14.5 0.00 0.00 0.00 75 1013.4
20260505203026 17 217 11.3 16.1 0.00 0.00 0.00 75 1013.4
20260505202522 17 280 6.4 16.1 0.00 0.00 0.00 76 1013.3
20260505202018 17 169 8.0 16.1 0.00 0.00 0.00 78 1013.4
20260505201516 16 169 6.4 16.1 0.00 0.00 0.00 78 1013.5
20260505201013 16 186 8.0 17.7 0.00 0.00 0.00 79 1013.5
20260505200511 16 180 9.7 19.3 0.00 0.00 0.00 79 1013.7
20260505200008 16 172 4.8 16.1 0.00 0.00 0.00 80 1013.5
20260505195504 16 197 9.7 17.7 0.00 0.00 0.00 79 1013.7
20260505195001 16 168 6.4 16.1 0.00 0.00 0.00 80 1013.7
20260505194459 16 178 11.3 17.7 0.00 0.00 0.00 78 1013.6
20260505193958 16 192 9.7 16.1 0.00 0.00 0.00 79 1013.5
20260505193456 16 213 11.3 16.1 0.00 0.00 0.00 78 1013.6
20260505192953 16 221 3.2 12.9 0.00 0.00 0.00 78 1013.7
20260505192452 16 172 9.7 14.5 0.00 0.00 0.00 77 1013.5
20260505191949 16 178 9.7 11.3 0.00 0.00 0.00 78 1013.7
20260505191447 16 174 8.0 14.5 0.00 0.00 0.00 77 1013.8
20260505190944 16 196 3.2 17.7 0.00 0.00 0.00 77 1013.6
20260505190439 16 167 12.9 16.1 0.00 0.00 0.00 77 1013.6
20260505185935 16 173 11.3 14.5 0.00 0.00 0.00 76 1013.6
20260505185433 16 176 6.4 12.9 0.00 0.00 0.00 76 1013.5
20260505184928 16 274 6.4 11.3 0.00 0.00 0.00 76 1013.6
20260505184426 16 180 6.4 12.9 0.00 0.00 0.00 77 1013.7
20260505183922 16 159 4.8 9.7 0.00 0.00 0.00 78 1013.6
20260505183419 15 179 6.4 14.5 0.00 0.00 0.00 77 1013.7
20260505182916 15 162 6.4 12.9 0.00 0.00 0.00 78 1013.6
20260505182412 15 180 11.3 14.5 0.00 0.00 0.00 77 1013.7
20260505181909 15 163 8.0 20.9 0.00 0.00 0.00 79 1013.7
20260505181406 15 159 8.0 17.7 0.00 0.00 0.00 78 1013.6
20260505180903 15 189 3.2 17.7 0.00 0.00 0.00 77 1013.7
20260505180400 15 176 8.0 14.5 0.00 0.00 0.00 77 1013.8
20260505175856 15 197 3.2 14.5 0.00 0.00 0.00 75 1013.8
20260505175353 15 165 8.0 14.5 0.00 0.00 0.00 79 1013.8
20260505174849 15 173 6.4 12.9 0.00 0.00 0.00 79 1013.8
20260505174347 15 165 4.8 12.9 0.00 0.00 0.00 81 1013.6
20260505173842 14 154 6.4 11.3 0.00 0.00 0.00 79 1013.7
20260505173339 14 184 6.4 12.9 0.00 0.00 0.00 82 1013.8
20260505172836 14 152 3.2 11.3 0.00 0.00 0.00 84 1013.7
20260505172334 14 153 6.4 8.0 0.00 0.00 0.00 81 1013.5
20260505171833 14 157 6.4 11.3 0.00 0.00 0.00 82 1013.5
20260505171331 14 184 3.2 8.0 0.00 0.00 0.00 82 1013.8
20260505170827 13 175 6.4 9.7 0.00 0.00 0.00 81 1013.6
20260505170324 13 100 4.8 8.0 0.00 0.00 0.00 83 1013.7
20260505165819 14 151 4.8 8.0 0.00 0.00 0.00 82 1013.8
20260505165315 13 169 4.8 9.7 0.00 0.00 0.00 80 1013.7
20260505164810 13 155 3.2 4.8 0.00 0.00 0.00 81 1013.8
20260505164308 13 92 4.8 8.0 0.00 0.00 0.00 84 1013.6
20260505163806 13 75 4.8 11.3 0.00 0.00 0.00 83 1013.9
20260505163304 13 173 4.8 8.0 0.00 0.00 0.00 82 1013.8
20260505162802 13 89 0.0 4.8 0.00 0.00 0.00 83 1013.8
20260505162258 13 102 4.8 8.0 0.00 0.00 0.00 84 1013.8
20260505161755 13 141 1.6 8.0 0.00 0.00 0.00 86 1013.7
20260505161253 13 114 4.8 8.0 0.00 0.00 0.00 87 1013.8
20260505160750 12 23 3.2 4.8 0.00 0.00 0.00 88 1013.7
20260505160248 12 140 3.2 6.4 0.00 0.00 0.00 88 1013.9
20260505153227 11 100 3.2 6.4 0.00 0.00 0.00 92 1013.6
20260505152724 11 180 3.2 6.4 0.00 0.00 0.00 93 1013.6
20260505152220 11 123 1.6 6.4 0.00 0.00 0.00 95 1013.7
20260505151715 11 142 4.8 4.8 0.00 0.00 0.00 95 1013.8
20260505151213 11 142 0.0 4.8 0.00 0.00 0.00 96 1013.7
20260505150709 11 133 4.8 8.0 0.00 0.00 0.00 96 1013.4
20260505150206 11 123 0.0 3.2 0.00 0.00 0.00 97 1013.3
20260505140639 10 67 4.8 6.4 0.00 0.00 0.00 98 1013.3
20260505140136 10 62 4.8 4.8 0.00 0.00 0.00 98 1013.2
20260505124549 10 121 3.2 4.8 0.00 0.00 0.00 98 1012.8
20260505124045 10 80 0.0 4.8 0.00 0.00 0.00 98 1012.9
20260505123542 10 89 3.2 3.2 0.00 0.00 0.00 98 1012.9
20260505123038 10 95 3.2 4.8 0.00 0.00 0.00 98 1013.0
20260505122535 10 104 0.0 4.8 0.00 0.00 0.00 98 1012.9
20260505122033 10 99 3.2 4.8 0.00 0.00 0.00 97 1012.9
20260505121529 10 173 4.8 9.7 0.00 0.00 0.00 97 1012.9
20260505121026 10 202 3.2 9.7 0.00 0.00 0.00 98 1012.8
20260505120522 10 140 3.2 8.0 0.00 0.00 0.00 98 1012.8
20260505120018 10 140 3.2 6.4 0.00 0.00 0.00 98 1012.8
20260505115513 10 148 3.2 4.8 0.00 0.00 0.00 98 1012.8
20260505115011 10 168 4.8 9.7 0.00 0.00 0.00 98 1012.6
20260505114507 10 160 4.8 9.7 0.00 0.00 0.00 98 1013.0
20260505114003 10 220 6.4 9.7 0.00 0.00 0.00 98 1012.8
20260505113500 10 119 0.0 6.4 0.00 0.00 0.00 98 1012.8
20260505112956 10 222 3.2 6.4 0.00 0.00 0.00 98 1012.8
20260505112453 10 176 3.2 6.4 0.00 0.00 0.00 98 1012.6
20260505111950 10 189 3.2 8.0 0.00 0.00 0.00 98 1013.0
20260505111444 10 134 4.8 8.0 0.00 0.00 0.00 98 1012.6
20260505110941 10 200 8.0 8.0 0.00 0.00 0.00 98 1012.9
20260505110438 10 169 1.6 9.7 0.00 0.00 0.00 98 1012.6
20260505101908 10 146 1.6 6.4 0.00 0.00 0.00 98 1012.9
20260505101403 10 103 0.0 6.4 0.00 0.00 0.00 98 1012.8
20260505100859 10 104 3.2 3.2 0.00 0.00 0.00 98 1012.8
20260505100356 10 98 1.6 3.2 0.00 0.00 0.00 98 1012.6
20260505095851 10 70 1.6 4.8 0.00 0.00 0.00 98 1012.8
20260505095349 10 115 1.6 4.8 0.00 0.00 0.00 98 1012.6
20260505094845 10 116 1.6 4.8 0.00 0.00 0.00 98 1012.6
20260505094342 10 62 3.2 4.8 0.00 0.00 0.00 97 1012.8
20260505093838 10 46 3.2 4.8 0.00 0.00 0.00 97 1012.9
20260505093336 10 65 1.6 4.8 0.00 0.00 0.00 97 1012.9
20260505092833 10 71 3.2 4.8 0.00 0.00 0.00 97 1013.0
20260505092331 10 89 3.2 4.8 0.00 0.00 0.00 97 1012.9
20260505091827 10 70 3.2 4.8 0.00 0.00 0.00 97 1012.9
20260505091326 10 71 3.2 4.8 0.00 0.00 0.00 97 1013.0
20260505090823 10 65 3.2 4.8 0.00 0.00 0.00 97 1012.9
20260505090321 10 61 3.2 4.8 0.00 0.00 0.00 97 1013.1
20260505085818 10 83 4.8 4.8 0.00 0.00 0.00 97 1013.0
20260505085317 10 45 4.8 4.8 0.00 0.00 0.00 97 1013.1
20260505084814 10 78 3.2 3.2 0.00 0.00 0.00 97 1013.0
20260505084312 10 70 3.2 3.2 0.00 0.00 0.00 97 1013.0
20260505083809 10 79 0.0 4.8 0.00 0.00 0.00 96 1013.1
20260505083306 10 32 0.0 3.2 0.00 0.00 0.00 96 1013.2
20260505082802 10 41 3.2 4.8 0.05 0.00 0.00 96 1013.3
20260505082259 10 73 3.2 4.8 0.05 0.00 0.00 96 1013.2
20260505081755 10 22 3.2 6.4 0.00 0.00 0.00 95 1013.1
20260505081252 10 53 4.8 4.8 0.00 0.00 0.00 95 1013.2
20260505080749 10 41 4.8 6.4 0.00 0.00 0.00 94 1013.1
20260505080245 10 190 4.8 6.4 0.00 0.00 0.00 94 1013.4
20260505075740 10 185 1.6 9.7 0.00 0.00 0.00 94 1013.2
20260505075238 10 288 4.8 8.0 0.00 0.00 0.00 95 1013.3
20260505074735 10 283 4.8 9.7 0.00 0.00 0.00 95 1013.3
20260505074232 10 180 4.8 11.3 0.00 0.00 0.00 95 1013.5
20260505073730 10 309 0.0 1.6 0.00 0.00 0.00 95 1013.2
20260505073227 10 176 1.6 4.8 0.00 0.00 0.00 95 1013.1
20260505072724 10 184 6.4 8.0 0.00 0.00 0.00 95 1013.2
20260505072220 10 297 0.0 1.6 0.00 0.00 0.00 95 1013.4
20260505071715 10 237 1.6 4.8 0.00 0.00 0.00 94 1013.4
20260505071213 10 242 4.8 14.5 0.00 0.00 0.00 94 1013.4
20260505070710 10 229 8.0 14.5 0.00 0.00 0.00 95 1013.3
20260505070206 10 310 9.7 16.1 0.00 0.00 0.00 95 1013.3
20260505065702 10 133 4.8 16.1 0.00 0.03 0.03 94 1013.2
20260505065159 10 180 11.3 14.5 0.00 0.03 0.03 95 1013.3
20260505064656 10 224 4.8 16.1 0.00 0.03 0.03 95 1013.1
20260505064154 10 307 12.9 16.1 0.05 0.03 0.03 95 1013.2
20260505063651 10 213 1.6 8.0 0.00 0.03 0.03 95 1013.0
20260505063147 10 222 16.1 20.9 0.05 0.03 0.03 96 1013.1
20260505062643 11 128 6.4 8.0 0.05 0.03 0.03 96 1013.3
20260505062141 11 240 4.8 9.7 0.00 0.00 0.00 95 1013.3
20260505061638 11 70 4.8 6.4 0.00 0.00 0.00 94 1013.3
20260505061137 11 187 3.2 6.4 0.00 0.00 0.00 94 1013.5
20260505060633 11 234 3.2 6.4 0.00 0.00 0.00 93 1013.1
20260505060130 11 307 3.2 8.0 0.00 0.00 0.00 94 1013.3
20260505055625 11 174 0.0 6.4 0.00 0.00 0.00 94 1013.0
20260505055122 11 235 8.0 9.7 0.00 0.00 0.00 94 1013.0
20260505054620 11 155 3.2 9.7 0.00 0.00 0.00 93 1012.9
20260505054118 11 208 8.0 14.5 0.00 0.00 0.00 93 1013.0
20260505053615 11 273 9.7 11.3 0.00 0.00 0.00 93 1013.0
20260505053111 11 227 4.8 14.5 0.00 0.00 0.00 93 1013.0
20260505052608 11 275 8.0 20.9 0.00 0.00 0.00 92 1012.9
20260505052106 11 229 17.7 25.7 0.00 0.00 0.00 92 1013.1
20260505051602 11 192 14.5 22.5 0.00 0.00 0.00 93 1013.1
20260505051101 11 269 11.3 20.9 0.00 0.00 0.00 93 1013.1
20260505050558 11 200 14.5 27.4 0.00 0.00 0.00 93 1013.0
20260505041526 12 223 8.0 17.7 0.00 0.00 0.00 94 1012.4
20260505041023 12 229 17.7 22.5 0.00 0.00 0.00 93 1012.4
20260505040520 12 282 6.4 12.9 0.00 0.00 0.00 92 1012.5
20260505040018 12 264 6.4 14.5 0.00 0.00 0.00 92 1012.6
20260505035514 12 199 11.3 24.1 0.00 0.00 0.00 91 1012.4
20260505035011 12 242 12.9 17.7 0.00 0.00 0.00 91 1012.3
20260505034507 12 221 6.4 9.7 0.00 0.00 0.00 92 1012.2
20260505034004 12 168 3.2 11.3 0.00 0.00 0.00 92 1012.1
20260505033501 12 150 0.0 6.4 0.00 0.00 0.00 94 1012.0
20260505032959 12 210 3.2 8.0 0.00 0.00 0.00 94 1011.8
20260505032456 12 233 4.8 8.0 0.00 0.00 0.00 94 1011.6
20260505031953 12 248 4.8 9.7 0.00 0.00 0.00 92 1011.7
20260505031449 12 236 12.9 16.1 0.00 0.00 0.00 92 1011.5
20260505030946 12 205 9.7 11.3 0.00 0.00 0.00 92 1011.6
20260505030442 12 231 4.8 12.9 0.00 0.00 0.00 92 1011.6
20260505025938 12 298 6.4 12.9 0.00 0.00 0.00 93 1011.2
20260505025435 12 220 4.8 12.9 0.00 0.00 0.00 93 1011.2
20260505024934 12 264 11.3 17.7 0.00 0.00 0.00 93 1011.1
20260505024431 12 237 12.9 17.7 0.00 0.00 0.00 92 1011.3
20260505023928 12 224 14.5 16.1 0.00 0.00 0.00 93 1011.0
20260505023425 12 219 12.9 17.7 0.00 0.00 0.00 93 1011.5
20260505022922 12 266 8.0 8.0 0.00 0.00 0.00 92 1011.6
20260505022420 12 301 3.2 6.4 0.00 0.00 0.00 92 1011.7
20260505021917 12 279 9.7 14.5 0.00 0.00 0.00 92 1011.6
20260505021413 12 260 4.8 11.3 0.00 0.00 0.00 92 1011.5
20260505020909 12 243 8.0 19.3 0.00 0.00 0.00 92 1011.3
20260505020404 12 240 8.0 24.1 0.00 0.00 0.00 92 1011.1
20260505015901 12 268 12.9 22.5 0.00 0.00 0.00 91 1011.0